Flag for Canada Weather past 2 weeks in Pickering, Ontario, Canada

Now
36 °F

More clouds than sun.


Feels Like: 32 °F
Forecast: N/A
Wind: 5 mph from West

Location: Toronto Buttonville

Current Time: Dec 28, 2014 at 3:57:41 PM

Latest Report: Dec 28, 2014 at 3:00 PM


Visibility: 15 mi

Pressure: 29.99 "Hg

Humidity: 65%

Dew point: 25 °F

Location of PickeringLocation

Historic Weather in Pickering — Graph

°F

Pickering temperature yesterday

Maximum temperature yesterday: 48 °F (at 4:00 PM)
Minimum temperature yesterday: 32 °F (at 12:00 AM)
Average temperature yesterday: 42 °F

Past Weeks' High & Low Weather Summary

 TemperatureHumidityPressure
High50 °F (Dec 24, 11:00 PM)100% (Dec 14, 12:00 AM)30.35 "Hg (Dec 14, 12:00 AM)
Low16 °F (Dec 20, 8:00 AM)48% (Dec 28, 12:00 PM)29.18 "Hg (Dec 24, 10:00 PM)
Average35 °F85%30.01 "Hg
* Reported Dec 13 2:00 PM — Dec 28 2:00 PM, Pickering, Weather by CustomWeather, © 2014

Note: Actual official high and low records may vary slightly from our data, if they occured in-between our weather recording intervals... More about our weather records

Advertising

Pickering weather history for previous 24 hours

 ConditionsComfort  
Time TempWeatherWind HumidityBarometerVisibility
2:00 PM
Dec 28
37 °FPartly sunny.9 mph56%29.99 "Hg15 mi
1:00 PM37 °FPartly sunny.10 mph52%29.99 "Hg15 mi
12:00 PM37 °FPartly sunny.12 mph48%30.01 "Hg15 mi
11:00 AM36 °FPartly sunny.10 mph56%30.01 "Hg15 mi
10:00 AM34 °FBroken clouds.8 mph65%30.01 "Hg15 mi
9:00 AM34 °FOvercast.9 mph65%30.00 "Hg15 mi
8:00 AM34 °FOvercast.7 mph70%29.98 "Hg15 mi
7:00 AM36 °FPassing clouds.18 mph60%29.96 "Hg15 mi
6:00 AM36 °FPassing clouds.13 mph65%29.93 "Hg15 mi
5:00 AM36 °FPassing clouds.14 mph70%29.90 "Hg15 mi
4:00 AM39 °FPassing clouds.15 mph70%29.88 "Hg15 mi
3:00 AM41 °FPassing clouds.10 mph76%29.88 "Hg15 mi
2:00 AM41 °FPassing clouds.12 mph76%29.85 "Hg13 mi
1:00 AM43 °FPartly cloudy.10 mph76%29.85 "Hg14 mi
12:00 AM45 °FPartly cloudy.15 mph87%29.85 "Hg11 mi
11:55 PM
Dec 27
N/ASprinkles.13 mphN/AN/A11 mi
11:00 PM48 °FOvercast.13 mph87%29.84 "Hg12 mi
10:00 PM46 °FPassing clouds.13 mph93%29.84 "Hg12 mi
9:00 PM46 °FSprinkles. Overcast.13 mph87%29.85 "Hg12 mi
8:45 PMN/ASprinkles.15 mphN/AN/A13 mi
8:00 PM48 °FPassing clouds.16 mph76%29.88 "Hg15 mi
7:00 PM48 °FPassing clouds.13 mph76%29.89 "Hg15 mi
6:00 PM48 °FOvercast.13 mph71%29.90 "Hg15 mi
5:00 PM48 °FOvercast.7 mph76%29.92 "Hg15 mi
4:00 PM48 °FPartly sunny.10 mph76%29.92 "Hg15 mi
3:00 PM46 °FPartly sunny.14 mph76%29.93 "Hg15 mi
Weather by CustomWeather, © 2014

See weather overviewHow to use our weather pages